Time,TemperatureF,DewpointF,PressureIn,WindDirection,WindDirectionDegrees,WindSpeedMPH,WindSpeedGustMPH,Humidity,HourlyPrecipIn,Conditions,Clouds,dailyrainin,SoftwareType,DateUTC
2013-11-26 00:01:00,28.5,25.1,30.22,SSE,148,1.0,3.0,87,0.00,,,0.00,WeatherCatV1.20B785,2013-11-26 05:01:00,
2013-11-26 00:04:00,28.5,25.1,30.22,SSW,195,1.0,6.0,87,0.00,,,0.00,WeatherCatV1.20B785,2013-11-26 05:04:00,
2013-11-26 00:06:00,28.6,25.2,30.21,SW,229,2.0,7.0,87,0.00,,,0.00,WeatherCatV1.20B785,2013-11-26 05:06:00,
2013-11-26 00:07:00,28.5,25.1,30.21,SW,214,0.0,7.0,87,0.00,,,0.00,WeatherCatV1.20B785,2013-11-26 05:07:00,
2013-11-26 00:09:00,28.6,25.2,30.21,SSE,159,4.0,4.0,87,0.00,,,0.00,WeatherCatV1.20B785,2013-11-26 05:09:00,
2013-11-26 00:12:00,28.6,25.2,30.21,SW,225,2.0,5.0,87,0.00,,,0.00,WeatherCatV1.20B785,2013-11-26 05:12:00,
2013-11-26 00:17:00,28.7,25.3,30.21,SSE,153,2.0,5.0,87,0.00,,,0.00,WeatherCatV1.20B785,2013-11-26 05:17:00,
2013-11-26 00:22:00,28.8,25.1,30.20,SSE,155,0.0,1.0,86,0.00,,,0.00,WeatherCatV1.20B785,2013-11-26 05:22:00,
2013-11-26 00:27:00,28.8,25.1,30.20,SSE,167,3.0,3.0,86,0.00,,,0.00,WeatherCatV1.20B785,2013-11-26 05:27:00,
2013-11-26 00:32:00,28.8,25.1,30.20,SSE,164,0.0,2.0,86,0.00,,,0.00,WeatherCatV1.20B785,2013-11-26 05:32:00,
2013-11-26 00:37:00,28.8,25.1,30.21,South,170,4.0,5.0,86,0.00,,,0.00,WeatherCatV1.20B785,2013-11-26 05:37:00,
2013-11-26 00:42:00,28.8,25.4,30.21,SE,143,4.0,7.0,87,0.00,,,0.00,WeatherCatV1.20B785,2013-11-26 05:42:00,
2013-11-26 00:47:00,28.6,25.2,30.21,SSW,193,3.0,5.0,87,0.00,,,0.00,WeatherCatV1.20B785,2013-11-26 05:47:00,
2013-11-26 00:52:00,28.5,25.4,30.20,SSE,155,4.0,5.0,88,0.00,,,0.00,WeatherCatV1.20B785,2013-11-26 05:52:00,
2013-11-26 00:57:00,28.4,25.3,30.20,SSE,157,2.0,4.0,88,0.00,,,0.00,WeatherCatV1.20B785,2013-11-26 05:57:00,
2013-11-26 01:02:00,28.3,25.2,30.19,South,171,3.0,4.0,88,0.00,,,0.00,WeatherCatV1.20B785,2013-11-26 06:02:00,
2013-11-26 01:07:00,28.2,25.1,30.19,SSE,158,1.0,3.0,88,0.00,,,0.00,WeatherCatV1.20B785,2013-11-26 06:07:00,
2013-11-26 01:12:00,28.2,25.1,30.19,SSE,158,2.0,3.0,88,0.00,,,0.00,WeatherCatV1.20B785,2013-11-26 06:12:00,
2013-11-26 01:17:00,28.2,25.4,30.18,SE,145,2.0,4.0,89,0.00,,,0.00,WeatherCatV1.20B785,2013-11-26 06:17:00,
2013-11-26 01:22:00,28.3,25.2,30.18,SSW,212,1.0,4.0,88,0.00,,,0.00,WeatherCatV1.20B785,2013-11-26 06:22:00,
2013-11-26 01:27:00,28.5,25.4,30.19,SSE,159,2.0,6.0,88,0.00,,,0.00,WeatherCatV1.20B785,2013-11-26 06:27:00,
2013-11-26 01:32:00,28.7,25.3,30.19,SE,129,4.0,4.0,87,0.00,,,0.00,WeatherCatV1.20B785,2013-11-26 06:32:00,
2013-11-26 01:37:00,28.8,25.4,30.19,South,178,3.0,7.0,87,0.00,,,0.00,WeatherCatV1.20B785,2013-11-26 06:37:00,
2013-11-26 01:42:00,29.0,25.6,30.19,SSE,158,4.0,4.0,87,0.00,,,0.00,WeatherCatV1.20B785,2013-11-26 06:42:00,
2013-11-26 01:47:00,29.1,25.5,30.19,SW,229,7.0,8.0,86,0.00,,,0.00,WeatherCatV1.20B785,2013-11-26 06:47:00,
2013-11-26 01:52:00,29.2,25.5,30.19,SSE,168,0.0,5.0,86,0.00,,,0.00,WeatherCatV1.20B785,2013-11-26 06:52:00,
2013-11-26 01:57:00,29.3,25.4,30.19,SE,141,2.0,2.0,85,0.00,,,0.00,WeatherCatV1.20B785,2013-11-26 06:57:00,
2013-11-26 02:02:00,29.3,25.6,30.19,SSW,212,3.0,8.0,86,0.00,,,0.00,WeatherCatV1.20B785,2013-11-26 07:02:00,
2013-11-26 02:07:00,29.3,25.6,30.19,SW,218,4.0,4.0,86,0.00,,,0.00,WeatherCatV1.20B785,2013-11-26 07:07:00,
2013-11-26 02:12:00,29.3,25.6,30.19,SSW,210,0.0,4.0,86,0.00,,,0.00,WeatherCatV1.20B785,2013-11-26 07:12:00,
2013-11-26 02:17:00,29.3,25.6,30.19,South,183,2.0,5.0,86,0.00,,,0.00,WeatherCatV1.20B785,2013-11-26 07:17:00,
2013-11-26 02:22:00,29.3,25.6,30.19,SW,221,3.0,3.0,86,0.00,,,0.00,WeatherCatV1.20B785,2013-11-26 07:22:00,
2013-11-26 02:27:00,29.4,25.7,30.21,SSW,193,1.0,6.0,86,0.00,,,0.00,WeatherCatV1.20B785,2013-11-26 07:27:00,
2013-11-26 02:32:00,29.5,25.8,30.21,SSW,197,1.0,5.0,86,0.00,,,0.00,WeatherCatV1.20B785,2013-11-26 07:32:00,
2013-11-26 02:37:00,29.6,26.2,30.21,SW,226,1.0,2.0,87,0.00,,,0.00,WeatherCatV1.20B785,2013-11-26 07:37:00,
2013-11-26 02:42:00,29.6,26.2,30.20,ESE,106,3.0,6.0,87,0.00,,,0.00,WeatherCatV1.20B785,2013-11-26 07:42:00,
2013-11-26 02:47:00,29.7,26.3,30.21,South,186,2.0,7.0,87,0.00,,,0.00,WeatherCatV1.20B785,2013-11-26 07:47:00,
2013-11-26 02:52:00,29.7,26.3,30.20,SSE,159,3.0,7.0,87,0.00,,,0.00,WeatherCatV1.20B785,2013-11-26 07:52:00,
2013-11-26 02:57:00,29.8,26.4,30.21,WSW,254,5.0,7.0,87,0.00,,,0.00,WeatherCatV1.20B785,2013-11-26 07:57:00,
2013-11-26 03:02:00,29.8,26.4,30.20,SW,217,2.0,3.0,87,0.00,,,0.00,WeatherCatV1.20B785,2013-11-26 08:02:00,
2013-11-26 03:07:00,29.8,26.7,30.19,South,179,3.0,3.0,88,0.00,,,0.00,WeatherCatV1.20B785,2013-11-26 08:07:00,
2013-11-26 03:12:00,29.9,26.8,30.19,SSW,193,6.0,7.0,88,0.00,,,0.00,WeatherCatV1.20B785,2013-11-26 08:12:00,
2013-11-26 03:17:00,30.0,26.6,30.19,SW,217,1.0,9.0,87,0.00,,,0.00,WeatherCatV1.20B785,2013-11-26 08:17:00,
2013-11-26 03:22:00,30.0,26.6,30.19,SW,214,0.0,4.0,87,0.00,,,0.00,WeatherCatV1.20B785,2013-11-26 08:22:00,
2013-11-26 03:27:00,30.0,26.6,30.19,West,277,0.0,1.0,87,0.00,,,0.00,WeatherCatV1.20B785,2013-11-26 08:27:00,
2013-11-26 03:32:00,30.1,26.7,30.18,South,190,1.0,4.0,87,0.00,,,0.00,WeatherCatV1.20B785,2013-11-26 08:32:00,
2013-11-26 03:37:00,30.1,26.7,30.18,WSW,247,1.0,2.0,87,0.00,,,0.00,WeatherCatV1.20B785,2013-11-26 08:37:00,
2013-11-26 03:42:00,30.1,26.7,30.17,SSE,158,0.0,4.0,87,0.00,,,0.00,WeatherCatV1.20B785,2013-11-26 08:42:00,
2013-11-26 03:47:00,30.1,26.7,30.17,South,181,2.0,4.0,87,0.00,,,0.00,WeatherCatV1.20B785,2013-11-26 08:47:00,
2013-11-26 03:52:00,30.1,26.7,30.17,SSE,149,1.0,2.0,87,0.00,,,0.00,WeatherCatV1.20B785,2013-11-26 08:52:00,
2013-11-26 03:57:00,30.1,26.7,30.17,South,179,2.0,6.0,87,0.00,,,0.00,WeatherCatV1.20B785,2013-11-26 08:57:00,
2013-11-26 04:02:00,30.1,26.7,30.17,SSW,200,4.0,4.0,87,0.00,,,0.00,WeatherCatV1.20B785,2013-11-26 09:02:00,
2013-11-26 04:07:00,30.1,26.7,30.17,West,259,1.0,9.0,87,0.00,,,0.00,WeatherCatV1.20B785,2013-11-26 09:07:00,
2013-11-26 04:12:00,30.2,26.8,30.17,SSW,210,1.0,4.0,87,0.00,,,0.00,WeatherCatV1.20B785,2013-11-26 09:12:00,
2013-11-26 04:17:00,30.2,26.8,30.17,SSE,160,1.0,4.0,87,0.00,,,0.00,WeatherCatV1.20B785,2013-11-26 09:17:00,
2013-11-26 04:22:00,30.2,26.8,30.17,SSE,160,0.0,5.0,87,0.00,,,0.00,WeatherCatV1.20B785,2013-11-26 09:22:00,
2013-11-26 04:27:00,30.1,26.7,30.18,SSW,201,1.0,2.0,87,0.00,,,0.00,WeatherCatV1.20B785,2013-11-26 09:27:00,
2013-11-26 04:32:00,30.1,26.7,30.19,WSW,247,0.0,2.0,87,0.00,,,0.00,WeatherCatV1.20B785,2013-11-26 09:32:00,
2013-11-26 04:37:00,30.1,26.7,30.19,SW,214,2.0,3.0,87,0.00,,,0.00,WeatherCatV1.20B785,2013-11-26 09:37:00,
2013-11-26 04:42:00,30.2,26.8,30.18,South,174,2.0,2.0,87,0.00,,,0.00,WeatherCatV1.20B785,2013-11-26 09:42:00,
2013-11-26 04:47:00,30.3,26.6,30.18,SSE,167,0.0,3.0,86,0.00,,,0.00,WeatherCatV1.20B785,2013-11-26 09:47:00,
2013-11-26 04:52:00,30.2,26.5,30.18,SSE,153,0.0,1.0,86,0.00,,,0.00,WeatherCatV1.20B785,2013-11-26 09:52:00,
2013-11-26 04:57:00,30.1,26.4,30.18,SW,219,4.0,5.0,86,0.00,,,0.00,WeatherCatV1.20B785,2013-11-26 09:57:00,
2013-11-26 05:02:00,30.2,26.5,30.19,SSW,212,1.0,4.0,86,0.00,,,0.00,WeatherCatV1.20B785,2013-11-26 10:02:00,
2013-11-26 05:07:00,30.2,26.5,30.20,South,188,0.0,3.0,86,0.00,,,0.00,WeatherCatV1.20B785,2013-11-26 10:07:00,
2013-11-26 05:12:00,30.2,26.5,30.19,SSE,167,0.0,3.0,86,0.00,,,0.00,WeatherCatV1.20B785,2013-11-26 10:12:00,
2013-11-26 05:17:00,30.2,26.5,30.18,SSW,207,0.0,0.0,86,0.00,,,0.00,WeatherCatV1.20B785,2013-11-26 10:17:00,
2013-11-26 05:22:00,30.2,26.5,30.18,SSW,211,0.0,3.0,86,0.00,,,0.00,WeatherCatV1.20B785,2013-11-26 10:22:00,
2013-11-26 05:27:00,30.2,26.5,30.19,SW,236,0.0,2.0,86,0.00,,,0.00,WeatherCatV1.20B785,2013-11-26 10:27:00,
2013-11-26 05:32:00,30.2,26.5,30.19,South,186,0.0,2.0,86,0.00,,,0.00,WeatherCatV1.20B785,2013-11-26 10:32:00,
2013-11-26 05:37:00,30.2,26.5,30.18,SSW,203,2.0,6.0,86,0.00,,,0.00,WeatherCatV1.20B785,2013-11-26 10:37:00,
2013-11-26 05:42:00,30.3,26.9,30.18,West,278,1.0,7.0,87,0.00,,,0.00,WeatherCatV1.20B785,2013-11-26 10:42:00,
2013-11-26 05:47:00,30.4,27.0,30.18,SW,219,0.0,4.0,87,0.00,,,0.00,WeatherCatV1.20B785,2013-11-26 10:47:00,
2013-11-26 05:52:00,30.4,27.0,30.18,SW,225,1.0,6.0,87,0.00,,,0.00,WeatherCatV1.20B785,2013-11-26 10:52:00,
2013-11-26 05:57:00,30.5,27.1,30.17,SW,229,5.0,6.0,87,0.00,,,0.00,WeatherCatV1.20B785,2013-11-26 10:57:00,
2013-11-26 06:02:00,30.5,26.8,30.17,SE,141,0.0,1.0,86,0.00,,,0.00,WeatherCatV1.20B785,2013-11-26 11:02:00,
2013-11-26 06:07:00,30.4,27.0,30.17,South,191,0.0,1.0,87,0.00,,,0.00,WeatherCatV1.20B785,2013-11-26 11:07:00,
2013-11-26 06:12:00,30.4,27.0,30.17,South,191,0.0,1.0,87,0.00,,,0.00,WeatherCatV1.20B785,2013-11-26 11:12:00,
2013-11-26 06:17:00,30.4,27.0,30.17,SSW,205,0.0,0.0,87,0.00,,,0.00,WeatherCatV1.20B785,2013-11-26 11:17:00,
2013-11-26 06:22:00,30.4,27.0,30.17,SSW,203,2.0,2.0,87,0.00,,,0.00,WeatherCatV1.20B785,2013-11-26 11:22:00,
2013-11-26 06:27:00,30.4,27.0,30.17,South,169,2.0,2.0,87,0.00,,,0.00,WeatherCatV1.20B785,2013-11-26 11:27:00,
2013-11-26 06:32:00,30.4,27.0,30.17,SSE,158,1.0,1.0,87,0.00,,,0.00,WeatherCatV1.20B785,2013-11-26 11:32:00,
2013-11-26 06:37:00,30.4,27.0,30.17,SSW,203,1.0,4.0,87,0.00,,,0.00,WeatherCatV1.20B785,2013-11-26 11:37:00,
2013-11-26 06:42:00,30.4,27.0,30.17,SSE,168,1.0,2.0,87,0.00,,,0.00,WeatherCatV1.20B785,2013-11-26 11:42:00,
2013-11-26 06:47:00,30.4,27.0,30.17,SE,144,3.0,4.0,87,0.00,,,0.00,WeatherCatV1.20B785,2013-11-26 11:47:00,
2013-11-26 06:52:00,30.3,26.9,30.16,SSW,202,0.0,1.0,87,0.00,,,0.00,WeatherCatV1.20B785,2013-11-26 11:52:00,
2013-11-26 06:57:00,30.3,26.9,30.17,SSW,203,0.0,1.0,87,0.00,,,0.00,WeatherCatV1.20B785,2013-11-26 11:57:00,
2013-11-26 07:02:00,30.3,26.9,30.17,SSE,165,1.0,1.0,87,0.00,,,0.00,WeatherCatV1.20B785,2013-11-26 12:02:00,
2013-11-26 07:07:00,30.3,26.9,30.17,SSE,153,1.0,2.0,87,0.00,,,0.00,WeatherCatV1.20B785,2013-11-26 12:07:00,
2013-11-26 07:12:00,30.3,26.9,30.17,SSE,155,1.0,2.0,87,0.00,,,0.00,WeatherCatV1.20B785,2013-11-26 12:12:00,
2013-11-26 07:17:00,30.4,27.0,30.17,WSW,246,2.0,3.0,87,0.00,,,0.00,WeatherCatV1.20B785,2013-11-26 12:17:00,
2013-11-26 07:22:00,30.4,27.0,30.17,SSE,155,0.0,2.0,87,0.00,,,0.00,WeatherCatV1.20B785,2013-11-26 12:22:00,
2013-11-26 07:27:00,30.4,27.0,30.17,South,188,2.0,2.0,87,0.00,,,0.00,WeatherCatV1.20B785,2013-11-26 12:27:00,
2013-11-26 07:32:00,30.4,27.0,30.17,SSW,203,3.0,4.0,87,0.00,,,0.00,WeatherCatV1.20B785,2013-11-26 12:32:00,
2013-11-26 07:37:00,30.4,27.0,30.17,SSW,202,1.0,4.0,87,0.00,,,0.00,WeatherCatV1.20B785,2013-11-26 12:37:00,
2013-11-26 07:42:00,30.5,27.1,30.17,SSE,160,0.0,2.0,87,0.00,,,0.00,WeatherCatV1.20B785,2013-11-26 12:42:00,
2013-11-26 07:47:00,30.5,27.1,30.17,SSE,165,5.0,8.0,87,0.00,,,0.00,WeatherCatV1.20B785,2013-11-26 12:47:00,
2013-11-26 07:52:00,30.5,27.1,30.17,SW,217,2.0,6.0,87,0.00,,,0.00,WeatherCatV1.20B785,2013-11-26 12:52:00,
2013-11-26 07:57:00,30.6,27.2,30.17,SE,138,0.0,2.0,87,0.00,,,0.00,WeatherCatV1.20B785,2013-11-26 12:57:00,
2013-11-26 08:02:00,30.6,27.2,30.17,South,183,1.0,2.0,87,0.00,,,0.00,WeatherCatV1.20B785,2013-11-26 13:02:00,
2013-11-26 08:07:00,30.7,27.3,30.16,SSW,201,1.0,3.0,87,0.00,,,0.00,WeatherCatV1.20B785,2013-11-26 13:07:00,
2013-11-26 08:12:00,30.7,27.0,30.16,SE,136,0.0,2.0,86,0.00,,,0.00,WeatherCatV1.20B785,2013-11-26 13:12:00,
2013-11-26 08:17:00,30.8,27.1,30.16,ESE,108,0.0,1.0,86,0.00,,,0.00,WeatherCatV1.20B785,2013-11-26 13:17:00,
2013-11-26 08:22:00,30.9,27.2,30.17,SW,218,0.0,2.0,86,0.00,,,0.00,WeatherCatV1.20B785,2013-11-26 13:22:00,
2013-11-26 08:27:00,30.9,27.2,30.17,SW,225,0.0,2.0,86,0.00,,,0.00,WeatherCatV1.20B785,2013-11-26 13:27:00,
2013-11-26 08:32:00,31.1,27.4,30.17,WSW,248,3.0,3.0,86,0.00,,,0.00,WeatherCatV1.20B785,2013-11-26 13:32:00,
2013-11-26 08:37:00,31.1,27.4,30.17,SSW,201,0.0,2.0,86,0.00,,,0.00,WeatherCatV1.20B785,2013-11-26 13:37:00,
2013-11-26 08:42:00,31.2,27.5,30.17,SW,224,2.0,3.0,86,0.00,,,0.00,WeatherCatV1.20B785,2013-11-26 13:42:00,
2013-11-26 08:47:00,31.2,27.5,30.16,SSE,167,0.0,1.0,86,0.00,,,0.00,WeatherCatV1.20B785,2013-11-26 13:47:00,
2013-11-26 08:52:00,31.3,27.6,30.16,South,172,2.0,3.0,86,0.00,,,0.00,WeatherCatV1.20B785,2013-11-26 13:52:00,
2013-11-26 08:57:00,31.3,27.6,30.16,SSE,163,2.0,2.0,86,0.00,,,0.00,WeatherCatV1.20B785,2013-11-26 13:57:00,
2013-11-26 09:02:00,31.4,27.7,30.16,South,180,3.0,4.0,86,0.00,,,0.00,WeatherCatV1.20B785,2013-11-26 14:02:00,
2013-11-26 09:07:00,31.5,27.8,30.15,SW,214,3.0,3.0,86,0.00,,,0.00,WeatherCatV1.20B785,2013-11-26 14:07:00,
2013-11-26 09:12:00,31.5,27.8,30.15,SE,140,1.0,2.0,86,0.00,,,0.00,WeatherCatV1.20B785,2013-11-26 14:12:00,
2013-11-26 09:17:00,31.6,27.9,30.15,SSE,153,2.0,3.0,86,0.00,,,0.00,WeatherCatV1.20B785,2013-11-26 14:17:00,
2013-11-26 09:22:00,31.7,28.0,30.15,SSE,148,0.0,1.0,86,0.00,,,0.00,WeatherCatV1.20B785,2013-11-26 14:22:00,
2013-11-26 09:27:00,31.8,27.8,30.15,SSE,149,1.0,2.0,85,0.00,,,0.00,WeatherCatV1.20B785,2013-11-26 14:27:00,
2013-11-26 09:32:00,31.8,27.8,30.15,SSE,165,2.0,4.0,85,0.00,,,0.00,WeatherCatV1.20B785,2013-11-26 14:32:00,
2013-11-26 09:37:00,31.9,27.9,30.15,South,171,1.0,3.0,85,0.00,,,0.00,WeatherCatV1.20B785,2013-11-26 14:37:00,
2013-11-26 09:42:00,31.9,27.9,30.16,South,184,1.0,4.0,85,0.00,,,0.00,WeatherCatV1.20B785,2013-11-26 14:42:00,
2013-11-26 09:47:00,31.9,27.9,30.16,SSW,208,5.0,6.0,85,0.00,,,0.00,WeatherCatV1.20B785,2013-11-26 14:47:00,
2013-11-26 09:52:00,32.0,28.0,30.16,SSW,198,0.0,1.0,85,0.00,,,0.00,WeatherCatV1.20B785,2013-11-26 14:52:00,
2013-11-26 09:57:00,32.2,28.2,30.16,SSE,159,0.0,3.0,85,0.00,,,0.00,WeatherCatV1.20B785,2013-11-26 14:57:00,
2013-11-26 10:02:00,32.3,28.3,30.16,SSW,194,2.0,4.0,85,0.00,,,0.00,WeatherCatV1.20B785,2013-11-26 15:02:00,
2013-11-26 10:07:00,32.3,28.3,30.16,SSW,200,3.0,4.0,85,0.00,,,0.00,WeatherCatV1.20B785,2013-11-26 15:07:00,
2013-11-26 10:12:00,32.3,28.3,30.15,SSE,156,1.0,4.0,85,0.00,,,0.00,WeatherCatV1.20B785,2013-11-26 15:12:00,
2013-11-26 10:17:00,32.4,28.4,30.14,South,176,1.0,3.0,85,0.00,,,0.00,WeatherCatV1.20B785,2013-11-26 15:17:00,
2013-11-26 10:22:00,32.4,28.1,30.14,SSE,162,3.0,4.0,84,0.00,,,0.00,WeatherCatV1.20B785,2013-11-26 15:22:00,
2013-11-26 10:27:00,32.5,28.2,30.14,South,184,3.0,4.0,84,0.00,,,0.00,WeatherCatV1.20B785,2013-11-26 15:27:00,
2013-11-26 10:32:00,32.6,28.6,30.14,SSE,166,3.0,4.0,85,0.00,,,0.00,WeatherCatV1.20B785,2013-11-26 15:32:00,
2013-11-26 10:37:00,32.6,28.3,30.14,SSW,193,2.0,2.0,84,0.00,,,0.00,WeatherCatV1.20B785,2013-11-26 15:37:00,
2013-11-26 10:42:00,32.6,28.3,30.15,South,191,4.0,4.0,84,0.00,,,0.00,WeatherCatV1.20B785,2013-11-26 15:42:00,
2013-11-26 10:47:00,32.6,28.3,30.14,SW,222,3.0,4.0,84,0.00,,,0.00,WeatherCatV1.20B785,2013-11-26 15:47:00,
2013-11-26 10:52:00,32.6,28.3,30.14,South,180,3.0,5.0,84,0.00,,,0.00,WeatherCatV1.20B785,2013-11-26 15:52:00,
2013-11-26 10:57:00,32.7,28.4,30.14,SSW,200,0.0,2.0,84,0.00,,,0.00,WeatherCatV1.20B785,2013-11-26 15:57:00,
2013-11-26 11:02:00,32.8,28.5,30.14,SW,232,0.0,1.0,84,0.00,,,0.00,WeatherCatV1.20B785,2013-11-26 16:02:00,
2013-11-26 11:07:00,32.9,28.6,30.13,SSW,211,1.0,2.0,84,0.00,,,0.00,WeatherCatV1.20B785,2013-11-26 16:07:00,
2013-11-26 11:12:00,32.9,28.6,30.12,South,188,1.0,5.0,84,0.00,,,0.00,WeatherCatV1.20B785,2013-11-26 16:12:00,
2013-11-26 11:17:00,32.9,28.6,30.12,South,184,1.0,3.0,84,0.00,,,0.00,WeatherCatV1.20B785,2013-11-26 16:17:00,
2013-11-26 11:22:00,32.9,28.6,30.11,SSW,204,6.0,7.0,84,0.00,,,0.00,WeatherCatV1.20B785,2013-11-26 16:22:00,
2013-11-26 11:27:00,32.8,28.5,30.11,SSE,165,4.0,5.0,84,0.00,,,0.00,WeatherCatV1.20B785,2013-11-26 16:27:00,
2013-11-26 11:32:00,32.9,28.6,30.12,SSE,163,1.0,3.0,84,0.00,,,0.00,WeatherCatV1.20B785,2013-11-26 16:32:00,
2013-11-26 11:37:00,32.9,28.6,30.12,SSE,148,2.0,3.0,84,0.00,,,0.00,WeatherCatV1.20B785,2013-11-26 16:37:00,
2013-11-26 11:42:00,32.9,28.6,30.12,SW,221,3.0,3.0,84,0.00,,,0.00,WeatherCatV1.20B785,2013-11-26 16:42:00,
2013-11-26 11:47:00,32.9,28.9,30.12,SE,141,3.0,3.0,85,0.00,,,0.00,WeatherCatV1.20B785,2013-11-26 16:47:00,
2013-11-26 11:52:00,32.9,28.9,30.11,SSE,148,1.0,1.0,85,0.00,,,0.00,WeatherCatV1.20B785,2013-11-26 16:52:00,
2013-11-26 11:57:00,32.9,29.2,30.11,SSW,200,1.0,2.0,86,0.00,,,0.00,WeatherCatV1.20B785,2013-11-26 16:57:00,
2013-11-26 12:02:00,32.8,29.1,30.11,SSW,197,0.0,0.0,86,0.00,,,0.00,WeatherCatV1.20B785,2013-11-26 17:02:00,
2013-11-26 12:07:00,32.8,29.4,30.11,SSW,204,0.0,3.0,87,0.00,,,0.00,WeatherCatV1.20B785,2013-11-26 17:07:00,
2013-11-26 12:13:00,32.8,29.4,30.10,South,183,2.0,3.0,87,0.00,,,0.00,WeatherCatV1.20B785,2013-11-26 17:13:00,
2013-11-26 12:18:00,32.7,29.5,30.10,SSE,158,0.0,0.0,88,0.00,,,0.00,WeatherCatV1.20B785,2013-11-26 17:18:00,
2013-11-26 12:23:00,32.6,29.5,30.09,SSE,153,0.0,0.0,88,0.00,,,0.00,WeatherCatV1.20B785,2013-11-26 17:23:00,
2013-11-26 12:28:00,32.5,29.4,30.09,SSE,153,0.0,0.0,88,0.00,,,0.00,WeatherCatV1.20B785,2013-11-26 17:28:00,
2013-11-26 12:33:00,32.3,29.4,30.09,SSE,153,1.0,1.0,89,0.00,,,0.00,WeatherCatV1.20B785,2013-11-26 17:33:00,
2013-11-26 12:38:00,32.1,29.2,30.09,SE,134,0.0,0.0,89,0.00,,,0.00,WeatherCatV1.20B785,2013-11-26 17:38:00,
2013-11-26 12:43:00,32.1,29.2,30.08,SE,129,0.0,1.0,89,0.00,,,0.00,WeatherCatV1.20B785,2013-11-26 17:43:00,
2013-11-26 12:48:00,32.1,29.2,30.09,SSE,159,0.0,1.0,89,0.00,,,0.00,WeatherCatV1.20B785,2013-11-26 17:48:00,
2013-11-26 12:53:00,32.1,29.2,30.08,SE,134,0.0,1.0,89,0.00,,,0.00,WeatherCatV1.20B785,2013-11-26 17:53:00,
2013-11-26 12:58:00,32.1,29.5,30.08,SSE,153,1.0,1.0,90,0.00,,,0.00,WeatherCatV1.20B785,2013-11-26 17:58:00,
2013-11-26 13:03:00,32.1,29.5,30.08,SSE,148,1.0,1.0,90,0.00,,,0.00,WeatherCatV1.20B785,2013-11-26 18:03:00,
2013-11-26 13:08:00,32.1,29.5,30.08,SSE,158,0.0,2.0,90,0.00,,,0.00,WeatherCatV1.20B785,2013-11-26 18:08:00,
2013-11-26 13:13:00,32.1,29.5,30.07,SSE,153,0.0,1.0,90,0.00,,,0.00,WeatherCatV1.20B785,2013-11-26 18:13:00,
2013-11-26 13:18:00,32.2,29.6,30.07,SSE,152,0.0,1.0,90,0.00,,,0.00,WeatherCatV1.20B785,2013-11-26 18:18:00,
2013-11-26 13:23:00,32.3,29.7,30.07,SSE,152,0.0,0.0,90,0.00,,,0.00,WeatherCatV1.20B785,2013-11-26 18:23:00,
2013-11-26 13:28:00,32.5,29.9,30.07,SSE,153,0.0,0.0,90,0.00,,,0.00,WeatherCatV1.20B785,2013-11-26 18:28:00,
2013-11-26 13:33:00,32.7,30.1,30.07,SSE,152,0.0,0.0,90,0.00,,,0.00,WeatherCatV1.20B785,2013-11-26 18:33:00,
2013-11-26 13:38:00,32.9,30.0,30.06,SSE,152,0.0,0.0,89,0.00,,,0.00,WeatherCatV1.20B785,2013-11-26 18:38:00,
2013-11-26 13:43:00,32.7,29.8,30.05,SSE,152,0.0,0.0,89,0.00,,,0.00,WeatherCatV1.20B785,2013-11-26 18:43:00,
2013-11-26 13:48:00,32.5,29.6,30.06,SSE,153,0.0,0.0,89,0.00,,,0.00,WeatherCatV1.20B785,2013-11-26 18:48:00,
2013-11-26 13:53:00,32.4,29.5,30.06,SSE,152,0.0,0.0,89,0.00,,,0.00,WeatherCatV1.20B785,2013-11-26 18:53:00,
2013-11-26 13:58:00,32.3,29.7,30.05,SE,132,0.0,1.0,90,0.00,,,0.00,WeatherCatV1.20B785,2013-11-26 18:58:00,
2013-11-26 14:03:00,32.4,29.8,30.05,SE,133,0.0,0.0,90,0.00,,,0.00,WeatherCatV1.20B785,2013-11-26 19:03:00,
2013-11-26 14:08:00,32.5,29.9,30.05,SE,132,0.0,0.0,90,0.00,,,0.00,WeatherCatV1.20B785,2013-11-26 19:08:00,
2013-11-26 14:13:00,32.5,29.9,30.04,SE,132,0.0,0.0,90,0.00,,,0.00,WeatherCatV1.20B785,2013-11-26 19:13:00,
2013-11-26 14:18:00,32.5,29.9,30.04,SE,133,0.0,0.0,90,0.00,,,0.00,WeatherCatV1.20B785,2013-11-26 19:18:00,
2013-11-26 14:23:00,32.4,29.8,30.03,SE,130,0.0,1.0,90,0.00,,,0.00,WeatherCatV1.20B785,2013-11-26 19:23:00,
2013-11-26 14:28:00,32.4,29.8,30.02,ESE,118,0.0,1.0,90,0.00,,,0.00,WeatherCatV1.20B785,2013-11-26 19:28:00,
2013-11-26 14:33:00,32.4,29.8,30.02,ESE,117,0.0,1.0,90,0.00,,,0.00,WeatherCatV1.20B785,2013-11-26 19:33:00,
2013-11-26 14:38:00,32.4,29.8,30.01,ESE,117,0.0,1.0,90,0.00,,,0.00,WeatherCatV1.20B785,2013-11-26 19:38:00,
2013-11-26 14:43:00,32.4,29.8,30.01,East,91,0.0,1.0,90,0.00,,,0.00,WeatherCatV1.20B785,2013-11-26 19:43:00,
2013-11-26 14:48:00,32.4,29.8,30.01,East,93,0.0,1.0,90,0.00,,,0.00,WeatherCatV1.20B785,2013-11-26 19:48:00,
2013-11-26 14:53:00,32.4,29.8,30.01,East,93,0.0,1.0,90,0.00,,,0.00,WeatherCatV1.20B785,2013-11-26 19:53:00,
2013-11-26 14:58:00,32.3,29.7,30.00,East,99,0.0,1.0,90,0.00,,,0.00,WeatherCatV1.20B785,2013-11-26 19:58:00,
2013-11-26 15:03:00,32.3,29.7,30.01,East,99,0.0,0.0,90,0.00,,,0.00,WeatherCatV1.20B785,2013-11-26 20:03:00,
2013-11-26 15:08:00,32.3,29.7,30.01,ESE,110,0.0,1.0,90,0.00,,,0.00,WeatherCatV1.20B785,2013-11-26 20:08:00,
2013-11-26 15:13:00,32.4,29.5,30.01,ESE,110,0.0,0.0,89,0.00,,,0.00,WeatherCatV1.20B785,2013-11-26 20:13:00,
2013-11-26 15:18:00,32.3,29.7,30.01,ESE,110,0.0,0.0,90,0.00,,,0.00,WeatherCatV1.20B785,2013-11-26 20:18:00,
2013-11-26 15:23:00,32.3,29.7,30.00,ESE,110,0.0,0.0,90,0.00,,,0.00,WeatherCatV1.20B785,2013-11-26 20:23:00,
2013-11-26 15:28:00,32.3,29.7,30.00,ESE,112,0.0,1.0,90,0.00,,,0.00,WeatherCatV1.20B785,2013-11-26 20:28:00,
2013-11-26 15:33:00,32.2,29.6,30.01,ESE,117,0.0,0.0,90,0.00,,,0.00,WeatherCatV1.20B785,2013-11-26 20:33:00,
2013-11-26 15:38:00,32.2,29.6,30.00,ESE,117,0.0,1.0,90,0.00,,,0.00,WeatherCatV1.20B785,2013-11-26 20:38:00,
2013-11-26 15:43:00,32.1,29.2,30.00,ESE,116,0.0,1.0,89,0.00,,,0.00,WeatherCatV1.20B785,2013-11-26 20:43:00,
2013-11-26 15:48:00,32.1,29.2,30.00,ESE,119,0.0,0.0,89,0.00,,,0.00,WeatherCatV1.20B785,2013-11-26 20:48:00,
2013-11-26 15:53:00,32.1,29.2,30.00,ESE,119,0.0,0.0,89,0.00,,,0.00,WeatherCatV1.20B785,2013-11-26 20:53:00,
2013-11-26 15:58:00,32.1,29.2,30.00,ESE,120,0.0,0.0,89,0.00,,,0.00,WeatherCatV1.20B785,2013-11-26 20:58:00,
2013-11-26 16:03:00,32.1,29.2,30.00,ESE,120,0.0,0.0,89,0.00,,,0.00,WeatherCatV1.20B785,2013-11-26 21:03:00,
2013-11-26 16:08:00,32.1,29.2,30.00,ESE,120,0.0,0.0,89,0.00,,,0.00,WeatherCatV1.20B785,2013-11-26 21:08:00,
2013-11-26 16:13:00,32.0,29.1,29.99,ESE,120,0.0,0.0,89,0.00,,,0.00,WeatherCatV1.20B785,2013-11-26 21:13:00,
2013-11-26 16:18:00,32.0,29.1,29.99,ESE,119,0.0,0.0,89,0.00,,,0.00,WeatherCatV1.20B785,2013-11-26 21:18:00,
2013-11-26 16:23:00,31.9,29.0,29.98,East,86,0.0,1.0,89,0.00,,,0.00,WeatherCatV1.20B785,2013-11-26 21:23:00,
2013-11-26 16:28:00,31.8,28.9,29.98,East,85,0.0,0.0,89,0.00,,,0.00,WeatherCatV1.20B785,2013-11-26 21:28:00,
2013-11-26 16:33:00,31.8,28.9,29.98,East,85,0.0,0.0,89,0.00,,,0.00,WeatherCatV1.20B785,2013-11-26 21:33:00,
2013-11-26 16:38:00,31.8,28.9,29.99,East,86,0.0,0.0,89,0.00,,,0.00,WeatherCatV1.20B785,2013-11-26 21:38:00,
2013-11-26 16:43:00,31.7,28.8,29.99,East,86,0.0,0.0,89,0.00,,,0.00,WeatherCatV1.20B785,2013-11-26 21:43:00,
2013-11-26 16:48:00,31.7,28.8,29.99,East,86,0.0,0.0,89,0.00,,,0.00,WeatherCatV1.20B785,2013-11-26 21:48:00,
2013-11-26 16:53:00,31.7,28.8,29.99,East,86,0.0,0.0,89,0.00,,,0.00,WeatherCatV1.20B785,2013-11-26 21:53:00,
2013-11-26 16:58:00,31.7,28.8,29.99,East,86,0.0,0.0,89,0.00,,,0.00,WeatherCatV1.20B785,2013-11-26 21:58:00,
2013-11-26 17:03:00,31.6,28.7,29.99,East,85,0.0,0.0,89,0.00,,,0.00,WeatherCatV1.20B785,2013-11-26 22:03:00,
2013-11-26 17:08:00,31.6,28.7,29.98,East,85,0.0,0.0,89,0.00,,,0.00,WeatherCatV1.20B785,2013-11-26 22:08:00,
2013-11-26 17:13:00,31.6,28.7,29.99,East,86,0.0,0.0,89,0.00,,,0.00,WeatherCatV1.20B785,2013-11-26 22:13:00,
2013-11-26 17:18:00,31.6,28.7,29.98,East,85,0.0,0.0,89,0.00,,,0.00,WeatherCatV1.20B785,2013-11-26 22:18:00,
2013-11-26 17:23:00,31.5,28.6,29.98,East,86,0.0,0.0,89,0.00,,,0.00,WeatherCatV1.20B785,2013-11-26 22:23:00,
2013-11-26 17:28:00,31.5,28.6,29.97,East,85,0.0,0.0,89,0.00,,,0.00,WeatherCatV1.20B785,2013-11-26 22:28:00,
2013-11-26 17:33:00,31.5,28.6,29.96,East,86,0.0,0.0,89,0.00,,,0.00,WeatherCatV1.20B785,2013-11-26 22:33:00,
2013-11-26 17:38:00,31.5,28.6,29.96,East,86,0.0,0.0,89,0.00,,,0.00,WeatherCatV1.20B785,2013-11-26 22:38:00,
2013-11-26 17:43:00,31.5,28.6,29.96,East,86,0.0,0.0,89,0.00,,,0.00,WeatherCatV1.20B785,2013-11-26 22:43:00,
2013-11-26 17:48:00,31.5,28.6,29.96,East,85,0.0,0.0,89,0.00,,,0.00,WeatherCatV1.20B785,2013-11-26 22:48:00,
2013-11-26 17:53:00,31.5,28.6,29.95,East,86,0.0,0.0,89,0.00,,,0.00,WeatherCatV1.20B785,2013-11-26 22:53:00,
2013-11-26 17:58:00,31.5,28.6,29.95,East,85,0.0,0.0,89,0.00,,,0.00,WeatherCatV1.20B785,2013-11-26 22:58:00,
2013-11-26 18:03:00,31.4,28.5,29.95,East,85,0.0,0.0,89,0.00,,,0.00,WeatherCatV1.20B785,2013-11-26 23:03:00,
2013-11-26 18:08:00,31.4,28.5,29.95,East,84,0.0,0.0,89,0.00,,,0.00,WeatherCatV1.20B785,2013-11-26 23:08:00,
2013-11-26 18:13:00,31.4,28.5,29.95,East,85,0.0,0.0,89,0.00,,,0.00,WeatherCatV1.20B785,2013-11-26 23:13:00,
2013-11-26 18:18:00,31.4,28.5,29.95,East,86,0.0,0.0,89,0.00,,,0.00,WeatherCatV1.20B785,2013-11-26 23:18:00,
2013-11-26 18:23:00,31.5,28.6,29.96,East,86,0.0,0.0,89,0.00,,,0.00,WeatherCatV1.20B785,2013-11-26 23:23:00,
2013-11-26 18:28:00,31.6,28.7,29.96,East,86,0.0,0.0,89,0.00,,,0.00,WeatherCatV1.20B785,2013-11-26 23:28:00,
2013-11-26 18:33:00,31.6,28.7,29.95,East,85,0.0,0.0,89,0.00,,,0.00,WeatherCatV1.20B785,2013-11-26 23:33:00,
2013-11-26 18:38:00,31.5,28.6,29.95,East,86,0.0,0.0,89,0.00,,,0.00,WeatherCatV1.20B785,2013-11-26 23:38:00,
2013-11-26 18:43:00,31.4,28.5,29.95,East,85,0.0,0.0,89,0.00,,,0.00,WeatherCatV1.20B785,2013-11-26 23:43:00,
2013-11-26 18:48:00,31.4,28.5,29.94,East,86,0.0,0.0,89,0.00,,,0.00,WeatherCatV1.20B785,2013-11-26 23:48:00,
2013-11-26 18:53:00,31.4,28.5,29.94,East,86,0.0,0.0,89,0.00,,,0.00,WeatherCatV1.20B785,2013-11-26 23:53:00,
2013-11-26 18:58:00,31.3,28.4,29.94,East,84,0.0,0.0,89,0.00,,,0.00,WeatherCatV1.20B785,2013-11-26 23:58:00,
2013-11-26 19:03:00,31.3,28.4,29.93,East,86,0.0,0.0,89,0.00,,,0.00,WeatherCatV1.20B785,2013-11-27 00:03:00,
2013-11-26 19:08:00,31.3,28.4,29.92,East,86,0.0,0.0,89,0.00,,,0.00,WeatherCatV1.20B785,2013-11-27 00:08:00,
2013-11-26 19:13:00,31.3,28.4,29.91,East,86,0.0,0.0,89,0.00,,,0.00,WeatherCatV1.20B785,2013-11-27 00:13:00,
2013-11-26 19:18:00,31.2,28.3,29.92,East,86,0.0,0.0,89,0.00,,,0.00,WeatherCatV1.20B785,2013-11-27 00:18:00,
2013-11-26 19:23:00,31.3,28.4,29.92,East,86,0.0,0.0,89,0.00,,,0.00,WeatherCatV1.20B785,2013-11-27 00:23:00,
2013-11-26 19:28:00,31.3,28.4,29.91,East,85,0.0,0.0,89,0.00,,,0.00,WeatherCatV1.20B785,2013-11-27 00:28:00,
2013-11-26 19:33:00,31.2,28.3,29.91,East,86,0.0,0.0,89,0.00,,,0.00,WeatherCatV1.20B785,2013-11-27 00:33:00,
2013-11-26 19:38:00,31.2,28.3,29.91,East,85,0.0,0.0,89,0.00,,,0.00,WeatherCatV1.20B785,2013-11-27 00:38:00,
2013-11-26 19:43:00,31.2,28.3,29.91,East,84,0.0,0.0,89,0.00,,,0.00,WeatherCatV1.20B785,2013-11-27 00:43:00,
2013-11-26 19:48:00,31.2,28.3,29.90,East,85,0.0,0.0,89,0.00,,,0.00,WeatherCatV1.20B785,2013-11-27 00:48:00,
2013-11-26 19:53:00,31.2,28.3,29.90,East,85,0.0,0.0,89,0.00,,,0.00,WeatherCatV1.20B785,2013-11-27 00:53:00,
2013-11-26 19:58:00,31.2,28.3,29.89,East,84,0.0,0.0,89,0.00,,,0.00,WeatherCatV1.20B785,2013-11-27 00:58:00,
2013-11-26 20:03:00,31.2,28.3,29.89,East,85,0.0,0.0,89,0.00,,,0.00,WeatherCatV1.20B785,2013-11-27 01:03:00,
2013-11-26 20:08:00,31.2,28.3,29.89,ENE,75,0.0,0.0,89,0.00,,,0.00,WeatherCatV1.20B785,2013-11-27 01:08:00,
2013-11-26 20:13:00,31.2,28.3,29.89,ENE,75,0.0,0.0,89,0.00,,,0.00,WeatherCatV1.20B785,2013-11-27 01:13:00,
2013-11-26 20:18:00,31.2,28.3,29.89,ENE,75,0.0,0.0,89,0.00,,,0.00,WeatherCatV1.20B785,2013-11-27 01:18:00,
2013-11-26 20:23:00,31.2,28.3,29.89,NW,309,0.0,0.0,89,0.00,,,0.00,WeatherCatV1.20B785,2013-11-27 01:23:00,
2013-11-26 20:28:00,31.2,28.3,29.89,NW,309,0.0,0.0,89,0.00,,,0.00,WeatherCatV1.20B785,2013-11-27 01:28:00,
2013-11-26 20:33:00,31.2,28.3,29.89,NW,309,0.0,0.0,89,0.00,,,0.00,WeatherCatV1.20B785,2013-11-27 01:33:00,
2013-11-26 20:38:00,31.1,28.2,29.88,NW,312,0.0,0.0,89,0.00,,,0.00,WeatherCatV1.20B785,2013-11-27 01:38:00,
2013-11-26 20:43:00,31.1,28.2,29.88,NW,312,0.0,0.0,89,0.00,,,0.00,WeatherCatV1.20B785,2013-11-27 01:43:00,
2013-11-26 20:48:00,31.1,28.2,29.87,NW,312,0.0,0.0,89,0.00,,,0.00,WeatherCatV1.20B785,2013-11-27 01:48:00,
2013-11-26 20:53:00,31.0,28.1,29.87,NW,312,0.0,0.0,89,0.00,,,0.00,WeatherCatV1.20B785,2013-11-27 01:53:00,
2013-11-26 20:58:00,31.1,28.2,29.88,NW,312,0.0,0.0,89,0.00,,,0.00,WeatherCatV1.20B785,2013-11-27 01:58:00,
2013-11-26 21:03:00,31.1,28.2,29.88,NW,312,0.0,0.0,89,0.00,,,0.00,WeatherCatV1.20B785,2013-11-27 02:03:00,
2013-11-26 21:08:00,31.1,28.2,29.87,NW,312,0.0,0.0,89,0.00,,,0.00,WeatherCatV1.20B785,2013-11-27 02:08:00,
2013-11-26 21:13:00,31.0,28.1,29.87,NW,316,0.0,0.0,89,0.00,,,0.00,WeatherCatV1.20B785,2013-11-27 02:13:00,
2013-11-26 21:18:00,31.0,28.1,29.87,NNW,348,0.0,0.0,89,0.00,,,0.00,WeatherCatV1.20B785,2013-11-27 02:18:00,
2013-11-26 21:23:00,31.0,28.1,29.86,North,358,0.0,0.0,89,0.00,,,0.00,WeatherCatV1.20B785,2013-11-27 02:23:00,
2013-11-26 21:28:00,31.0,28.1,29.86,NNW,348,0.0,0.0,89,0.00,,,0.00,WeatherCatV1.20B785,2013-11-27 02:28:00,
2013-11-26 21:33:00,31.0,28.1,29.86,North,8,0.0,0.0,89,0.00,,,0.00,WeatherCatV1.20B785,2013-11-27 02:33:00,
2013-11-26 21:38:00,31.0,28.1,29.86,NW,317,0.0,0.0,89,0.00,,,0.00,WeatherCatV1.20B785,2013-11-27 02:38:00,
2013-11-26 21:43:00,31.0,28.1,29.87,NNW,330,0.0,0.0,89,0.00,,,0.00,WeatherCatV1.20B785,2013-11-27 02:43:00,
2013-11-26 21:48:00,30.9,28.0,29.86,NW,320,0.0,0.0,89,0.00,,,0.00,WeatherCatV1.20B785,2013-11-27 02:48:00,
2013-11-26 21:53:00,30.9,28.0,29.86,NW,325,0.0,0.0,89,0.00,,,0.00,WeatherCatV1.20B785,2013-11-27 02:53:00,
2013-11-26 21:58:00,30.9,28.0,29.85,NW,321,0.0,0.0,89,0.00,,,0.00,WeatherCatV1.20B785,2013-11-27 02:58:00,
2013-11-26 22:03:00,30.9,28.0,29.85,NW,312,0.0,0.0,89,0.00,,,0.00,WeatherCatV1.20B785,2013-11-27 03:03:00,
2013-11-26 22:08:00,30.9,28.0,29.85,North,357,0.0,0.0,89,0.00,,,0.00,WeatherCatV1.20B785,2013-11-27 03:08:00,
2013-11-26 22:13:00,30.8,28.0,29.85,NNW,329,0.0,0.0,89,0.00,,,0.00,WeatherCatV1.20B785,2013-11-27 03:13:00,
2013-11-26 22:18:00,30.8,28.0,29.85,NW,326,0.0,0.0,89,0.00,,,0.00,WeatherCatV1.20B785,2013-11-27 03:18:00,
2013-11-26 22:23:00,30.8,28.0,29.84,North,350,0.0,0.0,89,0.00,,,0.00,WeatherCatV1.20B785,2013-11-27 03:23:00,
2013-11-26 22:28:00,30.7,27.9,29.85,NW,321,0.0,0.0,89,0.00,,,0.00,WeatherCatV1.20B785,2013-11-27 03:28:00,
2013-11-26 22:33:00,30.7,27.9,29.84,NW,309,0.0,0.0,89,0.00,,,0.00,WeatherCatV1.20B785,2013-11-27 03:33:00,
2013-11-26 22:38:00,30.7,27.9,29.84,NNW,335,0.0,0.0,89,0.00,,,0.00,WeatherCatV1.20B785,2013-11-27 03:38:00,
2013-11-26 22:43:00,30.6,27.8,29.83,NNW,340,0.0,0.0,89,0.00,,,0.00,WeatherCatV1.20B785,2013-11-27 03:43:00,
2013-11-26 22:48:00,30.6,27.8,29.83,NW,304,0.0,0.0,89,0.00,,,0.00,WeatherCatV1.20B785,2013-11-27 03:48:00,
2013-11-26 22:53:00,30.6,27.8,29.83,NNW,339,0.0,0.0,89,0.00,,,0.00,WeatherCatV1.20B785,2013-11-27 03:53:00,
2013-11-26 22:58:00,30.6,27.8,29.83,NNW,330,0.0,0.0,89,0.00,,,0.00,WeatherCatV1.20B785,2013-11-27 03:58:00,
2013-11-26 23:03:00,30.5,27.6,29.83,NW,320,0.0,0.0,89,0.00,,,0.00,WeatherCatV1.20B785,2013-11-27 04:03:00,
2013-11-26 23:08:00,30.5,27.6,29.83,NW,326,0.0,0.0,89,0.00,,,0.00,WeatherCatV1.20B785,2013-11-27 04:08:00,
2013-11-26 23:13:00,30.5,27.6,29.83,NNW,327,0.0,0.0,89,0.00,,,0.00,WeatherCatV1.20B785,2013-11-27 04:13:00,
2013-11-26 23:18:00,30.5,27.6,29.83,NNW,336,0.0,0.0,89,0.00,,,0.00,WeatherCatV1.20B785,2013-11-27 04:18:00,
2013-11-26 23:23:00,30.4,27.5,29.82,NW,325,0.0,0.0,89,0.00,,,0.00,WeatherCatV1.20B785,2013-11-27 04:23:00,
2013-11-26 23:28:00,30.5,27.6,29.82,NNW,334,0.0,0.0,89,0.00,,,0.00,WeatherCatV1.20B785,2013-11-27 04:28:00,
2013-11-26 23:33:00,30.4,27.5,29.81,NNW,344,0.0,0.0,89,0.00,,,0.00,WeatherCatV1.20B785,2013-11-27 04:33:00,
2013-11-26 23:38:00,30.4,27.5,29.82,NW,317,0.0,0.0,89,0.00,,,0.00,WeatherCatV1.20B785,2013-11-27 04:38:00,
2013-11-26 23:43:00,30.4,27.5,29.82,NNW,339,0.0,0.0,89,0.00,,,0.00,WeatherCatV1.20B785,2013-11-27 04:43:00,
2013-11-26 23:48:00,30.4,27.5,29.81,NNW,335,0.0,0.0,89,0.00,,,0.00,WeatherCatV1.20B785,2013-11-27 04:48:00,
2013-11-26 23:53:00,30.4,27.5,29.82,NNW,335,0.0,0.0,89,0.00,,,0.00,WeatherCatV1.20B785,2013-11-27 04:53:00,
2013-11-26 23:58:00,30.4,27.5,29.81,North,351,0.0,0.0,89,0.00,,,0.00,WeatherCatV1.20B785,2013-11-27 04:58:00,